| time (UTC) | temp F | wind direction | speed knots | gust knots | rain 1hr in | rain 24hr in | rain mn in | humidity % | barometer mb |
| 20260506231045 | 55 | 221 | 1.7 | 0.0 | 0.00 | 0.00 | 0.00 | 75 | 1020.1 |
| 20260506230045 | 55 | 240 | 1.7 | 0.0 | 0.00 | 0.00 | 0.00 | 75 | 1020.2 |
| 20260506225054 | 55 | 143 | 1.7 | 0.0 | 0.00 | 0.00 | 0.00 | 74 | 1020.2 |
| 20260506224035 | 55 | 143 | 1.7 | 0.0 | 0.00 | 0.00 | 0.00 | 75 | 1020.2 |
| 20260506223110 | 56 | 76 | 0.9 | 0.0 | 0.00 | 0.00 | 0.00 | 75 | 1020.2 |
| 20260506222047 | 55 | 108 | 0.9 | 0.0 | 0.00 | 0.00 | 0.00 | 75 | 1020.3 |
| 20260506221039 | 55 | 194 | 0.9 | 0.0 | 0.00 | 0.00 | 0.00 | 76 | 1020.3 |
| 20260506220053 | 55 | 144 | 0.9 | 0.0 | 0.00 | 0.00 | 0.00 | 75 | 1020.3 |
| 20260506215044 | 55 | 134 | 0.9 | 0.0 | 0.00 | 0.00 | 0.00 | 75 | 1020.3 |
| 20260506214041 | 55 | 138 | 1.7 | 0.0 | 0.00 | 0.00 | 0.00 | 75 | 1020.3 |
| 20260506213052 | 55 | 195 | 1.7 | 0.0 | 0.00 | 0.00 | 0.00 | 76 | 1020.3 |
| 20260506212034 | 55 | 148 | 0.9 | 0.0 | 0.00 | 0.00 | 0.00 | 77 | 1020.3 |
| 20260506211052 | 55 | 205 | 0.9 | 0.0 | 0.00 | 0.00 | 0.00 | 77 | 1020.3 |
| 20260506210040 | 55 | 253 | 1.7 | 0.0 | 0.00 | 0.00 | 0.00 | 78 | 1020.2 |
| 20260506205041 | 55 | 242 | 1.7 | 0.0 | 0.00 | 0.00 | 0.00 | 77 | 1020.2 |
| 20260506204050 | 55 | 207 | 0.9 | 0.0 | 0.00 | 0.00 | 0.00 | 78 | 1020.2 |
| 20260506203043 | 55 | 27 | 0.9 | 0.0 | 0.00 | 0.00 | 0.00 | 78 | 1020.2 |
| 20260506202049 | 55 | 281 | 0.9 | 0.0 | 0.00 | 0.00 | 0.00 | 79 | 1020.1 |
| 20260506201044 | 55 | 160 | 0.9 | 0.0 | 0.00 | 0.00 | 0.00 | 79 | 1020.1 |
| 20260506200039 | 56 | 266 | 1.7 | 0.0 | 0.00 | 0.00 | 0.00 | 78 | 1020.0 |
| 20260506195050 | 56 | 249 | 1.7 | 0.0 | 0.00 | 0.00 | 0.00 | 77 | 1019.7 |
| 20260506194040 | 57 | 265 | 1.7 | 0.0 | 0.00 | 0.00 | 0.00 | 75 | 1019.8 |
| 20260506193028 | 58 | 335 | 1.7 | 0.0 | 0.00 | 0.00 | 0.00 | 75 | 1019.8 |
| 20260506192038 | 57 | 269 | 1.7 | 0.0 | 0.00 | 0.00 | 0.00 | 76 | 1019.8 |
| 20260506191053 | 55 | 139 | 1.7 | 0.0 | 0.00 | 0.00 | 0.00 | 75 | 1019.7 |
| 20260506190046 | 55 | 197 | 0.9 | 0.0 | 0.00 | 0.00 | 0.00 | 75 | 1019.9 |
| 20260506185102 | 55 | 318 | 1.7 | 0.0 | 0.00 | 0.00 | 0.00 | 76 | 1019.7 |
| 20260506184103 | 55 | 194 | 0.9 | 0.0 | 0.00 | 0.00 | 0.00 | 76 | 1019.7 |
| 20260506183101 | 55 | 205 | 1.7 | 0.0 | 0.00 | 0.00 | 0.00 | 75 | 1019.8 |
| 20260506182036 | 55 | 330 | 0.9 | 0.0 | 0.00 | 0.00 | 0.00 | 76 | 1019.5 |
| 20260506181030 | 55 | 170 | 1.7 | 0.0 | 0.00 | 0.00 | 0.00 | 75 | 1019.5 |
| 20260506180048 | 55 | 171 | 1.7 | 0.0 | 0.00 | 0.00 | 0.00 | 76 | 1019.4 |
| 20260506175044 | 55 | 145 | 1.7 | 0.0 | 0.00 | 0.00 | 0.00 | 77 | 1019.5 |
| 20260506173028 | 55 | 261 | 0.9 | 0.0 | 0.00 | 0.00 | 0.00 | 76 | 1019.7 |
| 20260506172035 | 55 | 240 | 0.9 | 0.0 | 0.00 | 0.00 | 0.00 | 76 | 1019.6 |
| 20260506171048 | 55 | 257 | 0.9 | 0.0 | 0.00 | 0.00 | 0.00 | 76 | 1019.6 |
| 20260506170106 | 55 | 242 | 1.7 | 0.0 | 0.00 | 0.00 | 0.00 | 75 | 1019.3 |
| 20260506165038 | 55 | 176 | 0.9 | 0.0 | 0.00 | 0.00 | 0.00 | 76 | 1019.1 |
| 20260506164056 | 55 | 281 | 1.7 | 0.0 | 0.00 | 0.00 | 0.00 | 76 | 1019.1 |
| 20260506163031 | 54 | 131 | 0.9 | 0.0 | 0.00 | 0.00 | 0.00 | 76 | 1019.1 |
| 20260506162101 | 54 | 249 | 1.7 | 0.0 | 0.00 | 0.00 | 0.00 | 77 | 1018.8 |
| 20260506161043 | 54 | 111 | 0.9 | 0.0 | 0.00 | 0.00 | 0.00 | 78 | 1018.8 |
| 20260506160036 | 54 | 242 | 0.9 | 0.0 | 0.00 | 0.00 | 0.00 | 78 | 1018.9 |
| 20260506155110 | 54 | 193 | 0.9 | 0.0 | 0.00 | 0.00 | 0.00 | 78 | 1019.2 |
| 20260506154046 | 54 | 221 | 0.9 | 0.0 | 0.00 | 0.00 | 0.00 | 78 | 1019.2 |
| 20260506153047 | 54 | 243 | 0.9 | 0.0 | 0.00 | 0.00 | 0.00 | 78 | 1019.2 |
| 20260506152039 | 54 | 262 | 0.9 | 0.0 | 0.00 | 0.00 | 0.00 | 78 | 1018.7 |
| 20260506151115 | 54 | 177 | 0.9 | 0.0 | 0.00 | 0.00 | 0.00 | 78 | 1018.7 |
| 20260506150042 | 53 | 215 | 0.9 | 0.0 | 0.00 | 0.00 | 0.00 | 77 | 1019.0 |
| 20260506145037 | 53 | 290 | 0.9 | 0.0 | 0.00 | 0.00 | 0.00 | 77 | 1018.9 |
| 20260506144054 | 53 | 203 | 0.9 | 0.0 | 0.00 | 0.00 | 0.00 | 77 | 1018.9 |
| 20260506143044 | 53 | 227 | 0.9 | 0.0 | 0.00 | 0.00 | 0.00 | 77 | 1018.8 |
| 20260506142039 | 53 | 265 | 0.9 | 0.0 | 0.00 | 0.00 | 0.00 | 77 | 1018.7 |
| 20260506141034 | 53 | 186 | 0.9 | 0.0 | 0.00 | 0.00 | 0.00 | 76 | 1018.7 |
| 20260506140045 | 53 | 290 | 0.0 | 0.0 | 0.00 | 0.00 | 0.00 | 76 | 1018.8 |
| 20260506135042 | 53 | 218 | 0.9 | 0.0 | 0.00 | 0.00 | 0.00 | 76 | 1018.7 |
| 20260506134057 | 53 | 200 | 0.0 | 0.0 | 0.00 | 0.00 | 0.00 | 76 | 1018.7 |
| 20260506133028 | 53 | 200 | 0.0 | 0.0 | 0.00 | 0.00 | 0.00 | 76 | 1018.6 |
| 20260506132102 | 53 | 200 | 0.0 | 0.0 | 0.00 | 0.00 | 0.00 | 76 | 1018.1 |
| 20260506131043 | 53 | 200 | 0.9 | 0.0 | 0.00 | 0.00 | 0.00 | 76 | 1018.1 |
| 20260506130038 | 53 | 199 | 0.0 | 0.0 | 0.00 | 0.00 | 0.00 | 76 | 1018.2 |
| 20260506125031 | 53 | 200 | 0.0 | 0.0 | 0.00 | 0.00 | 0.00 | 76 | 1018.1 |
| 20260506124046 | 53 | 200 | 0.0 | 0.0 | 0.00 | 0.00 | 0.00 | 76 | 1018.1 |
| 20260506123101 | 53 | 200 | 0.0 | 0.0 | 0.00 | 0.00 | 0.00 | 76 | 1018.1 |
| 20260506122100 | 53 | 200 | 0.9 | 0.0 | 0.00 | 0.00 | 0.00 | 76 | 1018.2 |
| 20260506121047 | 53 | 186 | 0.9 | 0.0 | 0.00 | 0.00 | 0.00 | 76 | 1018.2 |
| 20260506120053 | 53 | 166 | 0.9 | 0.0 | 0.00 | 0.00 | 0.00 | 76 | 1017.9 |
| 20260506115048 | 53 | 193 | 0.0 | 0.0 | 0.00 | 0.00 | 0.00 | 76 | 1017.8 |
| 20260506114059 | 53 | 195 | 0.9 | 0.0 | 0.00 | 0.00 | 0.00 | 76 | 1017.8 |
| 20260506113101 | 53 | 231 | 0.9 | 0.0 | 0.00 | 0.00 | 0.00 | 76 | 1017.6 |
| 20260506112054 | 53 | 174 | 0.9 | 0.0 | 0.00 | 0.00 | 0.00 | 76 | 1017.5 |
| 20260506111033 | 53 | 188 | 0.9 | 0.0 | 0.00 | 0.00 | 0.00 | 76 | 1017.5 |
| 20260506110031 | 53 | 131 | 1.7 | 0.0 | 0.00 | 0.00 | 0.00 | 76 | 1017.5 |
| 20260506105043 | 53 | 185 | 1.7 | 0.0 | 0.00 | 0.00 | 0.00 | 76 | 1017.4 |
| 20260506104100 | 53 | 252 | 0.9 | 0.0 | 0.00 | 0.00 | 0.00 | 76 | 1017.4 |
| 20260506103032 | 53 | 243 | 1.7 | 0.0 | 0.00 | 0.00 | 0.00 | 77 | 1017.2 |
| 20260506102040 | 53 | 263 | 0.9 | 0.0 | 0.00 | 0.00 | 0.00 | 78 | 1017.2 |
| 20260506101055 | 53 | 262 | 0.9 | 0.0 | 0.00 | 0.00 | 0.00 | 80 | 1017.2 |
| 20260506100028 | 52 | 238 | 0.9 | 0.0 | 0.00 | 0.00 | 0.00 | 84 | 1017.0 |
| 20260506095057 | 52 | 186 | 0.9 | 0.0 | 0.00 | 0.00 | 0.00 | 84 | 1017.0 |
| 20260506094033 | 52 | 130 | 0.9 | 0.0 | 0.00 | 0.00 | 0.00 | 85 | 1017.0 |
| 20260506093040 | 51 | 146 | 0.0 | 0.0 | 0.00 | 0.00 | 0.00 | 85 | 1017.0 |
| 20260506092037 | 50 | 142 | 0.0 | 0.0 | 0.00 | 0.00 | 0.00 | 83 | 1016.9 |
| 20260506091050 | 50 | 142 | 0.0 | 0.0 | 0.00 | 0.00 | 0.00 | 81 | 1016.9 |
| 20260506090040 | 50 | 142 | 0.0 | 0.0 | 0.00 | 0.00 | 0.00 | 80 | 1016.7 |
| 20260506085056 | 50 | 142 | 0.0 | 0.0 | 0.00 | 0.00 | 0.00 | 80 | 1016.5 |
| 20260506084026 | 51 | 142 | 0.0 | 0.0 | 0.00 | 0.00 | 0.00 | 80 | 1016.5 |
| 20260506083038 | 51 | 142 | 0.0 | 0.0 | 0.00 | 0.00 | 0.00 | 79 | 1016.5 |
| 20260506082055 | 51 | 142 | 0.0 | 0.0 | 0.00 | 0.00 | 0.00 | 79 | 1016.5 |
| 20260506081045 | 51 | 142 | 0.0 | 0.0 | 0.00 | 0.00 | 0.00 | 79 | 1016.5 |
| 20260506080122 | 52 | 142 | 0.0 | 0.0 | 0.00 | 0.00 | 0.00 | 79 | 1016.5 |
| 20260506073029 | 52 | 142 | 0.0 | 0.0 | 0.00 | 0.00 | 0.00 | 79 | 1016.5 |
| 20260506072034 | 52 | 142 | 0.0 | 0.0 | 0.00 | 0.00 | 0.00 | 79 | 1016.4 |
| 20260506071040 | 52 | 142 | 0.0 | 0.0 | 0.00 | 0.00 | 0.00 | 79 | 1016.4 |
| 20260506062033 | 53 | 142 | 0.0 | 0.0 | 0.00 | 0.00 | 0.00 | 78 | 1015.8 |
| 20260506061038 | 53 | 142 | 0.0 | 0.0 | 0.00 | 0.00 | 0.00 | 78 | 1015.8 |
| 20260506051035 | 54 | 142 | 0.0 | 0.0 | 0.00 | 0.00 | 0.00 | 78 | 1015.4 |
| 20260506045042 | 55 | 142 | 0.0 | 0.0 | 0.00 | 0.00 | 0.00 | 78 | 1015.3 |
| 20260506044050 | 55 | 142 | 0.0 | 0.0 | 0.00 | 0.00 | 0.00 | 78 | 1015.3 |
| 20260506043053 | 55 | 142 | 0.0 | 0.0 | 0.00 | 0.00 | 0.00 | 79 | 1015.1 |
| 20260506042043 | 56 | 142 | 0.0 | 0.0 | 0.00 | 0.00 | 0.00 | 79 | 1015.1 |
| 20260506041038 | 56 | 142 | 0.0 | 0.0 | 0.00 | 0.00 | 0.00 | 79 | 1015.1 |
| 20260506040054 | 57 | 142 | 0.0 | 0.0 | 0.00 | 0.00 | 0.00 | 79 | 1015.0 |
| 20260506035104 | 58 | 142 | 0.0 | 0.0 | 0.00 | 0.00 | 0.00 | 78 | 1014.9 |
| 20260506034031 | 58 | 142 | 0.0 | 0.0 | 0.00 | 0.00 | 0.00 | 77 | 1014.9 |
| 20260506033029 | 59 | 142 | 0.0 | 0.0 | 0.00 | 0.00 | 0.00 | 77 | 1014.8 |
| 20260506032051 | 59 | 142 | 0.0 | 0.0 | 0.00 | 0.00 | 0.00 | 75 | 1014.7 |
| 20260506031043 | 60 | 142 | 0.0 | 0.0 | 0.00 | 0.00 | 0.00 | 73 | 1014.7 |
| 20260506030026 | 61 | 142 | 0.0 | 0.0 | 0.00 | 0.00 | 0.00 | 72 | 1014.7 |
| 20260506025108 | 62 | 142 | 0.0 | 0.0 | 0.00 | 0.00 | 0.00 | 71 | 1014.6 |
| 20260506024041 | 62 | 143 | 0.9 | 0.0 | 0.00 | 0.00 | 0.00 | 70 | 1014.6 |
| 20260506023106 | 62 | 142 | 0.9 | 0.0 | 0.00 | 0.00 | 0.00 | 70 | 1014.4 |
| 20260506022055 | 62 | 136 | 1.7 | 0.0 | 0.00 | 0.00 | 0.00 | 69 | 1014.4 |
| 20260506021045 | 62 | 136 | 0.9 | 0.0 | 0.00 | 0.00 | 0.00 | 69 | 1014.4 |
| 20260506020048 | 63 | 110 | 0.9 | 0.0 | 0.00 | 0.00 | 0.00 | 70 | 1014.5 |
| 20260506015040 | 63 | 132 | 1.7 | 0.0 | 0.00 | 0.00 | 0.00 | 69 | 1014.5 |
| 20260506014044 | 63 | 125 | 0.9 | 0.0 | 0.00 | 0.00 | 0.00 | 68 | 1014.5 |
| 20260506013036 | 63 | 246 | 0.9 | 0.0 | 0.00 | 0.00 | 0.00 | 69 | 1014.5 |
| 20260506011057 | 63 | 135 | 0.9 | 0.0 | 0.00 | 0.00 | 0.00 | 68 | 1014.6 |
| 20260506010043 | 63 | 251 | 0.9 | 0.0 | 0.00 | 0.00 | 0.00 | 69 | 1014.6 |
| 20260506005039 | 64 | 162 | 0.9 | 0.0 | 0.00 | 0.00 | 0.00 | 67 | 1014.8 |
| 20260506004032 | 64 | 134 | 0.9 | 0.0 | 0.00 | 0.00 | 0.00 | 68 | 1014.8 |
| 20260506003033 | 63 | 137 | 1.7 | 0.0 | 0.00 | 0.00 | 0.00 | 69 | 1014.8 |
| 20260506002040 | 63 | 133 | 0.9 | 0.0 | 0.00 | 0.00 | 0.00 | 69 | 1015.0 |
| 20260506001030 | 62 | 148 | 1.7 | 0.0 | 0.00 | 0.00 | 0.00 | 69 | 1015.0 |
| 20260506000057 | 63 | 162 | 1.7 | 0.0 | 0.00 | 0.00 | 0.00 | 70 | 1015.0 |
| 20260505235048 | 62 | 217 | 0.9 | 0.0 | 0.00 | 0.00 | 0.00 | 70 | 1015.3 |
| 20260505234052 | 62 | 139 | 0.9 | 0.0 | 0.00 | 0.00 | 0.00 | 71 | 1015.3 |
| 20260505233041 | 62 | 288 | 0.9 | 0.0 | 0.00 | 0.00 | 0.00 | 69 | 1015.4 |
| 20260505232056 | 62 | 349 | 1.7 | 0.0 | 0.00 | 0.00 | 0.00 | 69 | 1015.4 |